Location: Fuglau
(48.6333°N, 15.5500°E)
Time: 09:22:46
(UTC+00:00)

Meteor 1-11 Rocket - Pass Details

Date: 27 February 2020
Orbit: 831 x 915 km, 81.2° (Epoch: 03 April)

Event Time Altitude Azimuth Distance (km) Brightness Sun altitude
Rises 19:07:48 0° 188° (S) 3,404 6.8 -25.4°
Reaches altitude 10° 19:10:13 10° 188° (S) 2,463 6.0 -25.8°
Maximum altitude 19:15:48 85° 100° (E) 847 3.5 -26.6°
Drops below altitude 10° 19:21:21 10° 13° (NNE) 2,453 6.2 -27.5°
Sets 19:23:45 0° 13° (NNE) 3,390 6.9 -27.9°
